Location: Newark
(60.6561°N, 46.5772°E)
Time: 19:19:53
(UTC+00:00)

Tiros 1 - Pass Details

Date: 25 October 2019
Orbit: 630 x 664 km, 48.4° (Epoch: 12 November)

Event Time Altitude Azimuth Distance (km) Brightness Sun altitude
Exits shadow 00:41:07 14° 165° (SSE) 1,811 9.4 -24.5°
Drops below altitude 10° 00:42:24 10° 151° (SSE) 2,082 9.8 -24.3°
Sets 00:45:25 0° 132° (SE) 2,994 10.9 -24.0°
